Regional Weather Roundup
Issued by NWS Columbia, SC

Home | Current Version | Previous Version | Text Only | Print | Product List | Glossary On
Versions: 1 2 3 4 5 6 7 8 9 10 11 12 13 14 15 16 17 18 19 20 21 22 23 24 25 26 27 28 29 30 31 32 33 34 35 36 37 38 39 40 41 42 43 44 45 46 47 48 49 50
000
ASUS42 KCAE 251910
RWRCAE
REGIONAL WEATHER ROUNDUP
NATIONAL WEATHER SERVICE COLUMBIA SC
300 PM EDT MON MAY 25 2015

NOTE: "FAIR" INDICATES FEW OR NO CLOUDS BELOW 12,000 FEET WITH NO
SIGNIFICANT WEATHER AND/OR OBSTRUCTIONS TO VISIBILITY.

NOT ALL STATIONS ARE QUALITY CONTROLLED BY THE NATIONAL
WEATHER SERVICE. USE DATA WITH CAUTION...ESPECIALLY
DEWPOINT OBSERVATIONS.

SCZ001>056-GAZ040-063>065-077-252000-
...UPSTATE SOUTH CAROLINA...

CITY           SKY/WX    TMP DP  RH WIND       PRES   REMARKS
ANDERSON       PTSUNNY   82  61  48 S7        30.27F
LIBERTY        CLOUDY    80  62  53 S5        30.27F
SPARTANBURG    MOSUNNY   81  59  47 S3        30.27F
CLEMSON        CLOUDY    81  60  48 VRB5      30.29F
GREENVILLE     PTSUNNY   80  61  52 MISG      30.29F
GREENWOOD      PTSUNNY   82  62  50 SE6       30.28F
GREER          CLOUDY    77  62  59 S6        30.27F
ROCK HILL      PTSUNNY   82  58  43 VRB6      30.29F
CHESTER        CLOUDY    82  55  39 SE5       30.29F
LAURENS        MOCLDY    79  68  69 S5        30.28F


...CENTRAL SOUTH CAROLINA...

CITY           SKY/WX    TMP DP  RH WIND       PRES   REMARKS
COLUMBIA APT   CLOUDY    83  62  49 E10       30.26F
COLUMBIA OWENS CLOUDY    81  61  50 S8        30.28F
DARLINGTON     CLOUDY    84  57  39 SW8       30.29F
FLORENCE       CLOUDY    83  60  45 SE7       30.28F
MCENTIRE ANGB  PTSUNNY   82  62  51 S7        30.28F
ORANGEBURG     CLOUDY    81  63  54 SE6       30.28F
SUMTER SHAW    PTSUNNY   83  62  49 S7        30.26F
NEWBERRY       MOCLDY    81  61  50 S6        30.30F
AIKEN          MOCLDY    82  57  42 NE7       30.30F
BARNWELL       MOCLDY    84  66  54 SE13      30.26F
MANNING        CLOUDY    79  54  41 SW7       30.29F
CAMDEN         MOCLDY    82  59  44 CALM      30.28F
LANCASTER      PTCLDY    82  59  44 SW8       30.29F
WINNSBORO      PTCLDY    82  59  44 S8        30.28F


...EASTERN AND COASTAL SOUTH CAROLINA...

CITY           SKY/WX    TMP DP  RH WIND       PRES   REMARKS
MYRTLE BEACH   MOSUNNY   81  63  54 SE12      30.33F
N MYRTLE BCH   SUNNY     79  63  57 SE9       30.31F
CONWAY         MOCLDY    79  63  57 SE6       30.30F
MARION         MOCLDY    82  55  39 S5        30.28F
HARTSVILLE     CLOUDY    82  59  44 S8        30.28F
FLORENCE       CLOUDY    83  60  45 SE7       30.28F
DARLINGTON     CLOUDY    84  57  39 SW8       30.29F
CHARLESTON APT PTSUNNY   80  65  59 SE12      30.29F
MOUNT PLEASANT FAIR      81  68  65 E8        30.29F
WALTERBORO     CLOUDY    79  64  61 S6        30.28F
BEAUFORT       CLOUDY    81  68  64 E14       30.27F


...EASTERN GEORGIA...

CITY           SKY/WX    TMP DP  RH WIND       PRES   REMARKS
AUGUSTA BUSH F PTSUNNY   84  65  52 SE8       30.23F
AUGUSTA DANIEL SUNNY     86  63  45 S8        30.25F
THOMSON        PTSUNNY   85  69  58 SE5       30.28F
WASHINGTON     FAIR      82  70  65 E3        30.25F
CLAXTON        FAIR      81  73  78 SE9       30.24F
SYLVANIA       PTCLDY    83  72  68 SE8       30.25F
STATESBORO     RAIN      75  75 100 S7        30.25S
SAVANNAH       PTSUNNY   83  67  58 E18       30.25F


...SOUTHERN NORTH CAROLINA...

CITY           SKY/WX    TMP DP  RH WIND       PRES   REMARKS
CHARLOTTE      MOSUNNY   83  54  36 SW8       30.29F
MONROE         MOSUNNY   83  59  44 S9        30.28F
WADESBORO      MOCLDY    84  54  35 SE7       30.27F
ROCKINGHAM     MOCLDY    82  58  45 W7        30.28F
RUTHERFORDTON  MOSUNNY   79  58  49 S7        30.28F
ASHEVILLE      SUNNY     78  53  41 S14       30.30F

$$



USA.gov is the U.S. government's official web portal to all federal, state and local government web resources and services.